Location: Unspecified
(0.0000°N, 0.0000°E)
Time: 08:35:24
(UTC+00:00)

Explorer 11/Cluster Stage 4 - Pass Details

Date: 14 July 2020
Orbit: 467 x 1259 km, 28.8° (Epoch: 03 August)

Event Time Altitude Azimuth Distance (km) Brightness Sun altitude
Rises 16:18:41 0° 319° (NW) 3,967 11.2 24.8°
Reaches altitude 10° 16:21:46 10° 329° (NNW) 3,093 10.6 24.1°
Maximum altitude 16:28:38 32° 29° (NNE) 1,997 8.8 22.5°
Drops below altitude 10° 16:35:44 10° 88° (E) 3,216 9.3 20.9°
Sets 16:38:59 0° 98° (E) 4,145 9.7 20.2°
